Regional Weather Roundup
Issued by NWS

Home | Current Version | Previous Version | Text Only | Print | Product List | Glossary On
Versions: 1 2 3 4 5 6 7 8 9 10 11 12 13 14 15 16 17 18 19 20 21 22 23 24 25 26 27 28 29 30 31 32 33 34 35 36 37 38 39 40 41 42 43 44 45 46 47 48 49 50
000
ASUS43 KOAX 220310
RWRNE

WEATHER ROUNDUP FOR NEBRASKA
NATIONAL WEATHER SERVICE OMAHA NE
1000 PM CDT SUN SEP 21 2014

NOTES: SATELLITE DATA IS BEING USED TO AUGMENT CLOUD COVER ABOVE
       12000 FEET.
       "FAIR" INDICATES FEW OR NO CLOUDS BELOW 12,000 FEET WITH NO
       SIGNIFICANT WEATHER AND/OR OBSTRUCTIONS TO VISIBILITY.

  * THESE STATIONS DO NOT REPORT WEATHER SUCH AS RAIN...SNOW OR FOG.

NEZ001>004-019>022-054>056-220400-
NEBRASKA PANHANDLE

CITY           SKY/WX    TMP DP  RH WIND       PRES   REMARKS
SCOTTSBLUFF    MOCLDY    60  44  55 SE10      30.29R
ALLIANCE       MOCLDY    56  44  64 SE9       30.30R
CHADRON        PTCLDY    59  41  51 SE12      30.25S
KIMBALL        CLOUDY    61  42  48 SE7       30.31S
SIDNEY         CLOUDY    65  40  39 SE10      30.33R
$$

NEZ057>060-069>072-079>082-220400-
SOUTHWEST NEBRASKA

CITY           SKY/WX    TMP DP  RH WIND       PRES   REMARKS
NORTH PLATTE   PTCLDY    52  44  74 E3        30.30R
IMPERIAL       CLOUDY    62  44  51 SE7       30.32R
LEXINGTON      PTCLDY    57  46  65 E5        30.30R
MCCOOK         MOCLDY    61  44  53 E3        30.30R
OGALLALA       MOCLDY    63  44  51 E6        30.31R
$$

NEZ005>010-023>029-035>040-094-220400-
NORTH CENTRAL NEBRASKA

CITY           SKY/WX    TMP DP  RH WIND       PRES   REMARKS
VALENTINE      CLEAR     52  39  61 CALM      30.29S
AINSWORTH      CLEAR     52  43  71 S3        30.30S
BROKEN BOW     PTCLDY    49  44  83 CALM      30.30R
O`NEILL        CLEAR     53  49  86 CALM      30.29R
ORD            CLEAR     49  45  86 CALM      30.29R
THEDFORD       PTCLDY    59  38  47 CALM      30.31S
$$

NEZ041-046>049-061>064-073>077-083>087-220400-
SOUTH CENTRAL NEBRASKA

CITY           SKY/WX    TMP DP  RH WIND       PRES   REMARKS
GRAND ISLAND   CLEAR     54  46  74 CALM      30.30R
AURORA         CLEAR     52  48  88 CALM      30.29R
HASTINGS       CLEAR     56  45  66 CALM      30.29R
HEBRON         CLEAR     53  46  76 CALM      30.28R
HOLDREGE       CLEAR     56  44  64 CALM      30.30R
KEARNEY *      CLEAR     55  45  67 NE3       30.30S
YORK           CLEAR     54  48  82 CALM      30.29R
$$

NEZ011>018-030>034-042>045-220400-
NORTHEAST NEBRASKA

CITY           SKY/WX    TMP DP  RH WIND       PRES   REMARKS
NORFOLK        CLEAR     53  46  77 CALM      30.27R
ALBION         CLEAR     50  46  86 CALM      30.29R
BLAIR          CLEAR     59  48  67 NW5       30.26R
COLUMBUS *     CLEAR     54  45  71 CALM      30.29R
FREMONT        CLEAR     57  49  74 CALM      30.27R
TEKAMAH        CLEAR     53  49  86 NW3       30.26R
WAYNE          CLEAR     48  46  91 CALM      30.28R
$$

NEZ050>053-065>068-078-088>093-220400-
SOUTHEAST NEBRASKA

CITY           SKY/WX    TMP DP  RH WIND       PRES   REMARKS
LINCOLN        CLEAR     54  48  80 N5        30.28R
OMAHA EPPLEY   CLEAR     57  51  80 N3        30.26R
BEATRICE       CLEAR     54  48  80 NE5       30.27R
FALLS CITY     CLEAR     58  50  75 NW5       30.25R
NEBRASKA CITY    N/A     58  43  57 N6        30.26R
PLATTSMOUTH    CLEAR     56  47  70 NW3       30.26R
$$

NEZ044-045-051>053-067-220400-
OMAHA AREA

CITY           SKY/WX    TMP DP  RH WIND       PRES   REMARKS
OMAHA EPPLEY   CLEAR     57  51  80 N3        30.26R
BLAIR          CLEAR     59  48  67 NW5       30.26R
FREMONT        CLEAR     57  49  74 CALM      30.27R
MILLARD        CLEAR     57  51  79 CALM      30.26R
OFFUTT AFB     CLEAR     55  52  92 CALM      30.25R
PLATTSMOUTH    CLEAR     56  47  70 NW3       30.26R
WAHOO          FAIR      55  49  78 NW3       30.27R
$$



USA.gov is the U.S. government's official web portal to all federal, state and local government web resources and services.